Weather History for Cincinnati, OH

Change the Weather History Date:

Tuesday, May 28, 2013

  Actual Average Record
Temperature  
Mean Temperature 74 °F -  
Max Temperature 82 °F 77 °F 91 °F (1987)
Min Temperature 66 °F 55 °F 42 °F (1971)
Cooling Degree Days 8    
Growing Degree Days 24 (Base 50)    
Moisture  
Dew Point 61 °F    
Average Humidity 65    
Maximum Humidity 87    
Minimum Humidity 49    
Precipitation  
Precipitation 0.00 in - - ()
Sea Level Pressure  
Sea Level Pressure 29.99 in    
Wind  
Wind Speed 9 mph (SSW)    
Max Wind Speed 20 mph    
Max Gust Speed 24 mph    
Visibility 10 miles    
Events Rain    
Averages and records for this station are not official NWS values.
T = Trace of Precipitation, MM = Missing Value Source: NWS Daily Summary

Daily Weather History Graph

Daily Weather History Graph

Search for Another Location

Airport:

Trip Planner

Search our weather history database for the weather conditions in past years. The results will help you decide how hot, cold, wet, or windy it might be!

Date:

Astronomy

May. 28, 2013 Rise Set
Actual Time 6:15 AM EDT 8:55 PM EDT
Civil Twilight 5:44 AM EDT 9:26 PM EDT
Nautical Twilight 5:05 AM EDT 10:05 PM EDT
Astronomical Twilight 4:21 AM EDT 10:49 PM EDT
Moon No Moon Rise 10:01 AM EDT (5/28)
Length of Visible Light 15h 42m
Length of Day
14h 39m
Waning Gibbous, 83% of the Moon is Illuminated
May 28
Waning Gibbous
May 31
Last Quarter
Jun 8
New
Jun 16
First Quarter
Jun 23
Full

Hourly Weather History & Observations

Time (EDT) Temp. Heat Index Dew Point Humidity Pressure Visibility Wind Dir Wind Speed Gust Speed Precip Events Conditions
12:53 AM 71.1 °F - 57.0 °F 61% 29.97 in 10.0 mi SSW 6.9 mph - N/A   Clear
1:53 AM 70.0 °F - 57.9 °F 65% 29.97 in 10.0 mi SSW 6.9 mph - N/A   Clear
2:53 AM 66.9 °F - 57.9 °F 73% 29.98 in 10.0 mi SSW 6.9 mph - N/A   Clear
3:53 AM 70.0 °F - 59.0 °F 68% 29.99 in 10.0 mi SW 5.8 mph - N/A   Overcast
4:53 AM 68.0 °F - 60.1 °F 76% 30.00 in 10.0 mi SSW 5.8 mph - 0.00 in Rain Light Rain
5:53 AM 66.0 °F - 62.1 °F 87% 30.01 in 10.0 mi SSW 6.9 mph - 0.00 in Rain Light Rain
6:53 AM 68.0 °F - 61.0 °F 78% 30.02 in 10.0 mi South 9.2 mph - 0.00 in   Clear
7:53 AM 68.0 °F - 62.1 °F 81% 30.03 in 10.0 mi SSW 4.6 mph - N/A   Clear
8:53 AM 71.1 °F - 63.0 °F 75% 30.03 in 10.0 mi South 8.1 mph - N/A   Clear
9:53 AM 75.9 °F - 64.0 °F 67% 30.04 in 10.0 mi SSW 10.4 mph - N/A   Partly Cloudy
10:53 AM 78.1 °F - 64.0 °F 62% 30.03 in 10.0 mi SW 15.0 mph - N/A   Clear
11:53 AM 79.0 °F - 64.9 °F 62% 30.02 in 10.0 mi SSW 10.4 mph 19.6 mph N/A   Clear
12:53 PM 80.1 °F 81.9 °F 64.9 °F 60% 30.01 in 10.0 mi SW 13.8 mph - N/A   Scattered Clouds
1:53 PM 81.0 °F 82.7 °F 64.9 °F 58% 30.00 in 10.0 mi SSW 15.0 mph 24.2 mph N/A   Mostly Cloudy
2:53 PM 81.0 °F 81.9 °F 62.1 °F 52% 29.99 in 10.0 mi SSW 11.5 mph 21.9 mph N/A   Clear
3:53 PM 81.0 °F 81.6 °F 60.1 °F 49% 29.97 in 10.0 mi SSW 16.1 mph 24.2 mph N/A   Clear
4:53 PM 81.0 °F 81.7 °F 61.0 °F 50% 29.95 in 10.0 mi South 19.6 mph 24.2 mph N/A   Clear
5:53 PM 81.0 °F 81.6 °F 60.1 °F 49% 29.95 in 10.0 mi SSW 16.1 mph 23.0 mph N/A   Clear
6:53 PM 80.1 °F 81.2 °F 62.1 °F 54% 29.94 in 10.0 mi SSW 9.2 mph - N/A   Clear
7:53 PM 79.0 °F - 60.1 °F 52% 29.96 in 10.0 mi SSW 11.5 mph - N/A   Clear
8:53 PM 75.9 °F - 60.1 °F 58% 29.96 in 10.0 mi SSW 8.1 mph - N/A   Clear
9:53 PM 72.0 °F - 61.0 °F 68% 29.97 in 10.0 mi SSW 6.9 mph - N/A   Clear
10:53 PM 70.0 °F - 61.0 °F 73% 29.98 in 10.0 mi SSW 6.9 mph - N/A   Clear
11:53 PM 70.0 °F - 60.1 °F 71% 29.99 in 10.0 mi SSW 6.9 mph - N/A   Clear